Time,TemperatureF,DewpointF,PressureIn,WindDirection,WindDirectionDegrees,WindSpeedMPH,WindSpeedGustMPH,Humidity,HourlyPrecipIn,Conditions,Clouds,dailyrainin,SoftwareType,DateUTC
2013-02-19 00:05:00,43.2,36.0,30.34,SSW,201,3.0,4.0,75,0.00,,,0.00,weatherlink.com 1.10,2013-02-19 05:05:00,
2013-02-19 00:20:00,43.0,36.0,30.34,SSW,200,2.0,4.0,77,0.00,,,0.00,weatherlink.com 1.10,2013-02-19 05:20:00,
2013-02-19 00:35:00,43.0,37.0,30.33,SSW,211,3.0,3.0,79,0.00,,,0.00,weatherlink.com 1.10,2013-02-19 05:35:00,
2013-02-19 00:50:00,41.8,35.0,30.33,SW,218,0.0,2.0,76,0.00,,,0.00,weatherlink.com 1.10,2013-02-19 05:50:00,
2013-02-19 01:05:00,40.7,35.0,30.33,SW,232,0.0,1.0,81,0.00,,,0.00,weatherlink.com 1.10,2013-02-19 06:05:00,
2013-02-19 01:20:00,42.5,37.0,30.33,SSE,150,1.0,3.0,82,0.00,,,0.00,weatherlink.com 1.10,2013-02-19 06:20:00,
2013-02-19 01:35:00,42.5,37.0,30.32,SSW,201,0.0,3.0,80,0.00,,,0.00,weatherlink.com 1.10,2013-02-19 06:35:00,
2013-02-19 01:50:00,41.9,37.0,30.31,SSE,156,0.0,2.0,84,0.00,,,0.00,weatherlink.com 1.10,2013-02-19 06:50:00,
2013-02-19 02:05:00,40.3,36.0,30.31,SSE,156,0.0,1.0,85,0.00,,,0.00,weatherlink.com 1.10,2013-02-19 07:05:00,
2013-02-19 02:20:00,40.7,37.0,30.30,SSE,157,0.0,0.0,86,0.00,,,0.00,weatherlink.com 1.10,2013-02-19 07:20:00,
2013-02-19 02:35:00,41.9,38.0,30.29,East,90,1.0,1.0,87,0.00,,,0.00,weatherlink.com 1.10,2013-02-19 07:35:00,
2013-02-19 02:50:00,41.3,38.0,30.28,NNW,333,0.0,1.0,88,0.00,,,0.00,weatherlink.com 1.10,2013-02-19 07:50:00,
2013-02-19 03:05:00,42.9,40.0,30.27,ENE,77,0.0,2.0,88,0.00,,,0.00,weatherlink.com 1.10,2013-02-19 08:05:00,
2013-02-19 03:21:00,42.8,40.0,30.27,ENE,77,0.0,0.0,88,0.00,,,0.00,weatherlink.com 1.10,2013-02-19 08:21:00,
2013-02-19 03:36:00,43.2,40.0,30.26,East,79,0.0,1.0,89,0.00,,,0.00,weatherlink.com 1.10,2013-02-19 08:36:00,
2013-02-19 03:50:00,42.6,40.0,30.25,East,79,0.0,0.0,89,0.00,,,0.00,weatherlink.com 1.10,2013-02-19 08:50:00,
2013-02-19 04:05:00,42.6,41.0,30.25,SSW,208,1.0,2.0,92,0.00,,,0.00,weatherlink.com 1.10,2013-02-19 09:05:00,
2013-02-19 04:20:00,44.0,42.0,30.24,ESE,115,1.0,2.0,92,0.00,,,0.00,weatherlink.com 1.10,2013-02-19 09:20:00,
2013-02-19 04:36:00,41.9,39.0,30.24,NW,312,1.0,2.0,89,0.00,,,0.00,weatherlink.com 1.10,2013-02-19 09:36:00,
2013-02-19 04:50:00,41.8,40.0,30.23,NW,322,0.0,0.0,92,0.00,,,0.00,weatherlink.com 1.10,2013-02-19 09:50:00,
2013-02-19 05:06:00,41.9,40.0,30.23,NW,322,0.0,0.0,93,0.00,,,0.00,weatherlink.com 1.10,2013-02-19 10:06:00,
2013-02-19 05:21:00,41.9,40.0,30.23,NW,316,0.0,0.0,93,0.00,,,0.00,weatherlink.com 1.10,2013-02-19 10:21:00,
2013-02-19 05:36:00,41.8,40.0,30.22,NW,316,0.0,1.0,94,0.00,,,0.00,weatherlink.com 1.10,2013-02-19 10:36:00,
2013-02-19 05:51:00,42.4,41.0,30.22,NW,316,0.0,1.0,94,0.00,,,0.00,weatherlink.com 1.10,2013-02-19 10:51:00,
2013-02-19 06:06:00,44.8,44.0,30.22,East,101,2.0,4.0,95,0.00,,,0.00,weatherlink.com 1.10,2013-02-19 11:06:00,
2013-02-19 06:21:00,44.9,43.0,30.22,SSE,160,0.0,2.0,93,0.00,,,0.00,weatherlink.com 1.10,2013-02-19 11:21:00,
2013-02-19 06:36:00,44.5,42.0,30.21,SE,141,2.0,3.0,92,0.00,,,0.00,weatherlink.com 1.10,2013-02-19 11:36:00,
2013-02-19 06:51:00,44.6,43.0,30.20,SE,132,0.0,2.0,92,0.00,,,0.00,weatherlink.com 1.10,2013-02-19 11:51:00,
2013-02-19 07:06:00,45.5,43.0,30.20,ENE,70,0.0,1.0,92,0.00,,,0.00,weatherlink.com 1.10,2013-02-19 12:06:00,
2013-02-19 07:21:00,47.0,44.0,30.20,NNE,20,0.0,1.0,90,0.00,,,0.00,weatherlink.com 1.10,2013-02-19 12:21:00,
2013-02-19 07:36:00,48.1,45.0,30.19,East,89,1.0,2.0,88,0.00,,,0.00,weatherlink.com 1.10,2013-02-19 12:36:00,
2013-02-19 07:51:00,48.5,45.0,30.19,East,95,2.0,3.0,88,0.00,,,0.00,weatherlink.com 1.10,2013-02-19 12:51:00,
2013-02-19 08:06:00,50.9,47.0,30.19,East,94,0.0,1.0,87,0.00,,,0.00,weatherlink.com 1.10,2013-02-19 13:06:00,
2013-02-19 08:21:00,53.9,48.0,30.20,East,94,0.0,1.0,80,0.00,,,0.00,weatherlink.com 1.10,2013-02-19 13:21:00,
2013-02-19 08:36:00,54.2,47.0,30.19,SSW,197,1.0,2.0,78,0.00,,,0.00,weatherlink.com 1.10,2013-02-19 13:36:00,
2013-02-19 08:51:00,53.9,48.0,30.19,SSW,197,0.0,0.0,79,0.00,,,0.00,weatherlink.com 1.10,2013-02-19 13:51:00,
2013-02-19 09:06:00,54.3,47.0,30.18,East,87,0.0,0.0,76,0.00,,,0.00,weatherlink.com 1.10,2013-02-19 14:06:00,
2013-02-19 09:22:00,55.4,48.0,30.17,East,93,0.0,0.0,75,0.00,,,0.00,weatherlink.com 1.10,2013-02-19 14:22:00,
2013-02-19 09:37:00,55.6,47.0,30.16,SSE,155,0.0,1.0,74,0.00,,,0.00,weatherlink.com 1.10,2013-02-19 14:37:00,
2013-02-19 09:51:00,54.9,48.0,30.16,SW,219,0.0,1.0,77,0.00,,,0.00,weatherlink.com 1.10,2013-02-19 14:51:00,
2013-02-19 10:06:00,54.8,48.0,30.16,WSW,256,1.0,2.0,77,0.00,,,0.00,weatherlink.com 1.10,2013-02-19 15:06:00,
2013-02-19 10:21:00,54.4,50.0,30.16,WSW,238,7.0,7.0,84,0.00,,,0.00,weatherlink.com 1.10,2013-02-19 15:21:00,
2013-02-19 10:37:00,55.1,51.0,30.16,SW,235,6.0,13.0,85,0.01,,,0.01,weatherlink.com 1.10,2013-02-19 15:37:00,
2013-02-19 10:51:00,54.1,51.0,30.15,SW,236,3.0,6.0,90,0.01,,,0.01,weatherlink.com 1.10,2013-02-19 15:51:00,
2013-02-19 11:06:00,55.4,53.0,30.14,SW,225,2.0,5.0,92,0.03,,,0.03,weatherlink.com 1.10,2013-02-19 16:06:00,
2013-02-19 11:21:00,54.1,52.0,30.13,SW,217,3.0,6.0,91,0.02,,,0.03,weatherlink.com 1.10,2013-02-19 16:21:00,
2013-02-19 11:37:00,53.2,51.0,30.12,SSW,207,4.0,5.0,91,0.02,,,0.03,weatherlink.com 1.10,2013-02-19 16:37:00,
2013-02-19 11:52:00,53.1,51.0,30.10,SSW,197,6.0,7.0,92,0.02,,,0.03,weatherlink.com 1.10,2013-02-19 16:52:00,
2013-02-19 12:07:00,54.9,53.0,30.08,SSW,213,6.0,11.0,92,0.01,,,0.04,weatherlink.com 1.10,2013-02-19 17:07:00,
2013-02-19 12:22:00,55.6,53.0,30.07,SW,217,15.0,15.0,89,0.01,,,0.04,weatherlink.com 1.10,2013-02-19 17:22:00,
2013-02-19 12:37:00,56.0,53.0,30.06,SW,219,12.0,13.0,89,0.01,,,0.04,weatherlink.com 1.10,2013-02-19 17:37:00,
2013-02-19 12:52:00,56.1,52.0,30.04,SW,214,11.0,19.0,87,0.01,,,0.04,weatherlink.com 1.10,2013-02-19 17:52:00,
2013-02-19 13:07:00,55.7,52.0,30.04,SW,218,6.0,11.0,88,0.00,,,0.04,weatherlink.com 1.10,2013-02-19 18:07:00,
2013-02-19 13:22:00,55.8,52.0,30.03,SW,214,10.0,13.0,87,0.00,,,0.04,weatherlink.com 1.10,2013-02-19 18:22:00,
2013-02-19 13:37:00,55.3,53.0,30.03,SW,228,8.0,12.0,90,0.04,,,0.08,weatherlink.com 1.10,2013-02-19 18:37:00,
2013-02-19 13:52:00,54.6,53.0,30.02,SW,222,7.0,13.0,93,0.05,,,0.09,weatherlink.com 1.10,2013-02-19 18:52:00,
2013-02-19 14:07:00,54.2,53.0,30.02,SW,235,10.0,12.0,94,0.07,,,0.11,weatherlink.com 1.10,2013-02-19 19:07:00,
2013-02-19 14:22:00,54.0,52.0,30.01,SW,231,8.0,12.0,94,0.08,,,0.12,weatherlink.com 1.10,2013-02-19 19:22:00,
2013-02-19 14:37:00,53.8,52.0,29.99,SSW,209,13.0,17.0,95,0.05,,,0.13,weatherlink.com 1.10,2013-02-19 19:37:00,
2013-02-19 14:54:00,53.3,52.0,29.97,SSW,212,12.0,17.0,94,0.04,,,0.13,weatherlink.com 1.10,2013-02-19 19:54:00,
2013-02-19 15:07:00,52.9,51.0,29.97,SW,221,13.0,16.0,94,0.02,,,0.13,weatherlink.com 1.10,2013-02-19 20:07:00,
2013-02-19 15:22:00,52.8,51.0,29.96,SSW,210,12.0,15.0,94,0.01,,,0.13,weatherlink.com 1.10,2013-02-19 20:22:00,
2013-02-19 15:37:00,52.8,51.0,29.95,SSW,210,11.0,13.0,94,0.00,,,0.13,weatherlink.com 1.10,2013-02-19 20:37:00,
2013-02-19 15:53:00,52.9,51.0,29.94,SSW,208,9.0,13.0,94,0.00,,,0.13,weatherlink.com 1.10,2013-02-19 20:53:00,
2013-02-19 16:07:00,53.3,51.0,29.94,SW,218,11.0,15.0,93,0.00,,,0.13,weatherlink.com 1.10,2013-02-19 21:07:00,
2013-02-19 16:22:00,53.8,51.0,29.93,SW,222,9.0,12.0,91,0.00,,,0.13,weatherlink.com 1.10,2013-02-19 21:22:00,
2013-02-19 16:37:00,53.9,51.0,29.93,WSW,248,8.0,10.0,91,0.00,,,0.13,weatherlink.com 1.10,2013-02-19 21:37:00,
2013-02-19 16:52:00,53.8,51.0,29.92,WSW,255,8.0,10.0,90,0.00,,,0.13,weatherlink.com 1.10,2013-02-19 21:52:00,
2013-02-19 17:23:00,53.7,51.0,29.92,WSW,240,4.0,10.0,90,0.00,,,0.13,weatherlink.com 1.10,2013-02-19 22:23:00,
2013-02-19 17:37:00,53.6,51.0,29.93,SW,225,8.0,-999.0,91,-99.99,,,0.13,weatherlink.com 1.10,2013-02-19 22:37:00,
2013-02-19 17:53:00,53.7,51.0,29.93,SW,236,7.0,9.0,90,0.00,,,0.13,weatherlink.com 1.10,2013-02-19 22:53:00,
2013-02-19 18:08:00,53.6,51.0,29.93,SW,235,8.0,9.0,90,0.00,,,0.13,weatherlink.com 1.10,2013-02-19 23:08:00,
2013-02-19 18:23:00,53.5,51.0,29.93,SW,233,9.0,10.0,91,0.00,,,0.13,weatherlink.com 1.10,2013-02-19 23:23:00,
2013-02-19 18:53:00,55.1,51.0,29.93,WSW,239,18.0,23.0,86,0.00,,,0.13,weatherlink.com 1.10,2013-02-19 23:53:00,
2013-02-19 19:08:00,55.1,51.0,29.93,SW,233,12.0,23.0,87,0.00,,,0.13,weatherlink.com 1.10,2013-02-20 00:08:00,
2013-02-19 19:23:00,55.1,52.0,29.93,WSW,238,18.0,21.0,89,0.00,,,0.13,weatherlink.com 1.10,2013-02-20 00:23:00,
2013-02-19 19:38:00,55.5,52.0,29.93,SW,231,6.0,16.0,89,0.00,,,0.13,weatherlink.com 1.10,2013-02-20 00:38:00,
2013-02-19 19:53:00,55.5,53.0,29.93,SW,235,13.0,14.0,90,0.00,,,0.13,weatherlink.com 1.10,2013-02-20 00:53:00,
2013-02-19 20:08:00,55.5,53.0,29.93,West,266,3.0,9.0,91,0.00,,,0.13,weatherlink.com 1.10,2013-02-20 01:08:00,
2013-02-19 20:38:00,55.4,53.0,29.92,WSW,238,8.0,11.0,90,0.00,,,0.13,weatherlink.com 1.10,2013-02-20 01:38:00,
2013-02-19 20:53:00,55.5,53.0,29.92,West,263,3.0,8.0,90,0.00,,,0.13,weatherlink.com 1.10,2013-02-20 01:53:00,
2013-02-19 21:08:00,55.2,53.0,29.92,West,271,3.0,4.0,91,0.00,,,0.13,weatherlink.com 1.10,2013-02-20 02:08:00,
2013-02-19 21:23:00,55.5,53.0,29.93,West,276,3.0,6.0,91,0.00,,,0.13,weatherlink.com 1.10,2013-02-20 02:23:00,
2013-02-19 21:53:00,55.0,52.0,29.94,West,276,2.0,7.0,89,0.00,,,0.13,weatherlink.com 1.10,2013-02-20 02:53:00,
2013-02-19 22:08:00,54.4,51.0,29.94,SW,229,2.0,6.0,89,0.00,,,0.13,weatherlink.com 1.10,2013-02-20 03:08:00,
2013-02-19 22:23:00,53.8,49.0,29.95,West,273,2.0,9.0,85,0.00,,,0.13,weatherlink.com 1.10,2013-02-20 03:23:00,
2013-02-19 22:38:00,52.6,47.0,29.95,WNW,283,0.0,5.0,81,0.00,,,0.13,weatherlink.com 1.10,2013-02-20 03:38:00,
2013-02-19 22:53:00,51.9,47.0,29.95,WNW,297,2.0,11.0,82,0.00,,,0.13,weatherlink.com 1.10,2013-02-20 03:53:00,
2013-02-19 23:08:00,51.4,46.0,29.95,WSW,239,1.0,4.0,82,0.00,,,0.13,weatherlink.com 1.10,2013-02-20 04:08:00,
2013-02-19 23:23:00,50.9,46.0,29.95,WSW,248,1.0,4.0,83,0.00,,,0.13,weatherlink.com 1.10,2013-02-20 04:23:00,
2013-02-19 23:38:00,50.4,46.0,29.95,SW,235,1.0,4.0,84,0.00,,,0.13,weatherlink.com 1.10,2013-02-20 04:38:00,
2013-02-19 23:53:00,50.0,45.0,29.96,West,268,1.0,4.0,84,0.00,,,0.13,weatherlink.com 1.10,2013-02-20 04:53:00,